Location: Launay
(47.2429°N, 1.5727°E)
Time: 22:18:11
(UTC+00:00)

USA 229 - Pass Details

Date: 19 May 2025
Orbit: 872 x 1339 km, 63.4° (Epoch: 17 June)

Event Time Altitude Azimuth Distance (km) Brightness Sun altitude
Exits shadow 23:20:51 46° 175° (S) 1,256 3.6 -22.4°
Maximum altitude 23:22:28 61° 122° (ESE) 1,094 3.5 -22.5°
Drops below altitude 10° 23:29:01 10° 45° (NE) 2,872 6.5 -22.6°
Sets 23:31:50 0° 42° (NE) 3,903 7.3 -22.6°
